Tracking 22458 objects as of 2-Mar-2021
HD Live streaming from Space Station
objects crossing your sky now

CZ-4 DEB

Track CZ-4 DEB now!
10-day predictions


NORAD ID: 20881
Int'l Code: 1990-081AR
Perigee: 734.5 km
Apogee: 855.9 km
Inclination: 98.5 °
Period: 100.6 minutes
Semi major axis: 7166 km
RCS: 0.1863 m2 (medium)
Launch date: September 3, 1990
Source: People's Republic of China (PRC)
Launch site: Taiyaun Space Center, China (TSC)

Note: This is SATELLITE DEBRIS
aabbcc
Your satellite tracking list
Your tracking list is empty




NASA's NSSDC Master Catalog

Two Line Element Set (TLE):
1 20881U 90081AR  21060.74232557  .00000409  00000-0  16509-3 0  9998
2 20881  98.4753  74.5311 0084672 287.8168  71.3792 14.31099558574780
Source of the keplerian elements: AFSPC